Location: Zagreb
(45.8000°N, 16.0000°E)
Time: 01:04:00
(UTC+01:00)

NO-84 - Pass Details

Date: 01 November 2020
Orbit: 323 x 458 km, 55.0° (Epoch: 25 November)

Event Time Altitude Azimuth Distance (km) Brightness Sun altitude
Exits shadow 03:54:46 10° 37° (NE) 1,454 ? -28.6°
Drops below altitude 10° 03:54:47 10° 37° (NE) 1,460 ? -28.6°
Sets 03:57:05 0° 53° (NE) 2,288 ? -28.2°
